Location: Unspecified
(0.0000°N, 0.0000°E)
Time: 03:17:20
(UTC+00:00)

Oscar 14 - Pass Details

Date: 19 June 2023
Orbit: 776 x 790 km, 98.9° (Epoch: 28 September)

Event Time Altitude Azimuth Distance (km) Brightness Sun altitude
Rises 04:56:00 0° 44° (NE) 3,251 ? -14.9°
Reaches altitude 10° 04:59:08 10° 65° (ENE) 2,324 ? -14.2°
Maximum altitude 05:02:18 17° 103° (ESE) 1,905 ? -13.5°
Drops below altitude 10° 05:05:28 10° 142° (SE) 2,326 ? -12.8°
Sets 05:08:35 0° 162° (SSE) 3,254 ? -12.1°
